Location: Seattle
(47.6064°N, 122.3308°W)
Time: 19:44:59
(UTC-07:00)

S-56A Canister/Altair - Pass Details

Date: 07 August 2021
Orbit: 632 x 2500 km, 38.9° (Epoch: 24 September)

Event Time Altitude Azimuth Distance (km) Brightness Sun altitude
Rises 20:53:05 0° 281° (WNW) 6,092 13.9 -3.7°
Reaches altitude 10° 20:58:21 10° 269° (W) 5,158 12.8 -4.5°
Maximum altitude 21:08:16 22° 227° (SW) 4,171 11.5 -5.9°
Drops below altitude 10° 21:17:32 10° 184° (S) 4,740 11.3 -7.2°
Sets 21:22:09 0° 170° (S) 5,484 11.5 -7.9°
